Location: Acequia del Cap
(41.7000°N, 0.6167°E)
Time: 01:30:06
(UTC+00:00)

SL-16 R/B - Pass Details

Date: 07 August 2020
Orbit: 840 x 849 km, 71.0° (Epoch: 22 September)

Event Time Altitude Azimuth Distance (km) Brightness Sun altitude
Rises 03:44:46 0° 321° (NW) 3,419 5.3 -12.7°
Reaches altitude 10° 03:47:48 10° 306° (NW) 2,478 4.5 -12.3°
Maximum altitude 03:51:52 21° 260° (W) 1,837 3.4 -11.7°
Enters shadow 03:54:52 14° 222° (SW) 2,204 3.7 -11.2°
